Погода в Нузе-Хедс

Австралия     26°23′45″S   153°05′25″E
темп.,
°C
ветер,
м/с
пор.,
м/с
влажн.,
%
обл.,
%
осадки,
мм/ч
давл.,
гПа
погр.,
м
11 апреля, вс
вс1101:00+18зсз117242 0.0 100823
04:00+17з22715 0.0 100837
07:00+19з117066 0.0 101046
10:00+28юз12395 0.0 1010863
13:00+30вюв133865 0.1 10081709
16:00+26в235422 0.1 1009515
19:00+19з11720 0.0 101232
22:00+16юз24620 0.0 101467
12 апреля, пн
пн1201:00+16юз311410 0.0 1014445
04:00+10юз11600 0.0 101430
07:00+11ююз15600 0.0 1017115
10:00+20ююв36470 0.0 1018809
13:00+22юв345216 0.0 10161247
16:00+21юв34622 0.0 1016995
19:00+16ю24810 0.0 101898
22:00+15ю13840 0.0 101983
13 апреля, вт
вт1301:00+14ю25865 0.0 1019132
04:00+14ю268154 0.0 1020260
07:00+14ююз277863 0.0 1021222
10:00+21ююв365881 0.0 10211029
13:00+22юв355376 0.0 10191541
16:00+21юв346620 0.1 10191175
19:00+15ююз249314 0.1 102097
22:00+14ююз12920 0.1 102170
14 апреля, ср
ср1401:00+14юз129457 0.0 102069
04:00+16ююз1388100 0.1 1019123
07:00+15ююз158825 0.0 1020181
10:00+23юв23530 0.0 10201365
13:00+25вюв32470 0.0 10171698
16:00+22в23560 0.0 1017701
19:00+17зюз01770 0.0 101833
22:00+15з11870 0.0 101939
15 апреля, чт
чт1501:00+13з11947 0.0 101827
04:00+14з11931 0.0 101721
07:00+15з11850 0.0 101846
10:00+25ссв11490 0.0 10171085
13:00+26св32430 0.0 10151650
16:00+24св24560 0.0 1014537
19:00+18ссз12780 0.0 101635
22:00+15зсз12880 0.0 101735